{"data":{"norad_id":69791,"intl_designator":"2026-151AE","name":"KUIPER-00662","alt_names":[],"object_type":"PAYLOAD","status":"ACTIVE","operator":null,"country":"US","launch_date":"2026-07-02","launch_site_code":"AFETR","launch_vehicle":null,"mission":null,"orbit_class":"UNKNOWN","rcs_meters":null,"size_class":null,"mass_kg":null,"dimensions":null,"purposes":[],"wikipedia_slug":null,"has_3d_model":false,"image_url":null,"decayed_at":null,"tle_current":{"epoch":"2026-09-19T23:02:14.667072Z","epoch_age_seconds":72163,"freshness":"FRESH","line1":"1 69791U 26151AE  26262.95989198  .00001515  00000+0  22780-3 0  9996","line2":"2 69791  51.9002 239.0787 0000073  25.8564 334.2402 14.79910480 11987","mean_motion":14.7991048,"eccentricity":7.3e-6,"inclination_deg":51.9002,"raan_deg":239.0787,"arg_perigee_deg":25.8564,"mean_anomaly_deg":334.2402,"bstar":0.0002278,"rev_number":1198,"period_min":97.30318282495,"perigee_km":629.55556360686,"apogee_km":629.65787666517,"semimajor_km":7007.743720136,"source":"CELESTRAK","updated_at":"2026-09-20T09:00:25.116048Z"}}}